Location: Cahas Mountain Overlook
(37.0833°N, 80.1000°W)
Time: 23:43:59
(UTC-05:00)

Vanguard 1 - Pass Details

Date: 04 October 2022
Orbit: 650 x 3831 km, 34.2° (Epoch: 03 December)

Event Time Altitude Azimuth Distance (km) Brightness Sun altitude
Rises 21:34:08 0° 272° (W) 4,137 14.3 -31.3°
Reaches altitude 10° 21:40:22 10° 233° (SW) 2,504 12.5 -32.5°
Maximum altitude 21:41:08 10° 225° (SW) 2,416 12.3 -32.6°
Drops below altitude 10° 21:41:53 10° 217° (SW) 2,372 12.2 -32.8°
Enters shadow 21:42:12 10° 213° (SSW) 2,365 12.1 -32.8°
